KB1MIM Weather Reports


time (UTC)temp
F
wind
direction
speed
knots
gust
knots
rain 1hr
in
rain 24hr
in
rain mn
in
humidity
%
barometer
mb
20260506194503 60 229 0.0 2.6 0.04 0.11 0.11 94 1005.3
20260506193001 60 177 0.0 1.7 0.03 0.10 0.10 93 1005.4
20260506191600 60 130 0.0 2.6 0.04 0.10 0.10 93 1005.4
20260506190100 60 86 0.0 2.6 0.03 0.09 0.09 92 1005.5
20260506184617 61 84 0.0 1.7 0.02 0.07 0.07 92 1005.7
20260506183059 61 141 0.0 0.9 0.04 0.07 0.07 91 1005.6
20260506181558 62 193 0.0 1.7 0.05 0.06 0.06 90 1005.8
20260506180057 62 158 0.0 0.9 0.06 0.06 0.06 90 1005.5
20260506174554 63 158 0.0 4.3 0.05 0.05 0.05 89 1005.6
20260506173104 64 173 0.0 0.9 0.03 0.03 0.03 87 1006.1
20260506171553 65 179 0.0 0.9 0.01 0.01 0.01 82 1006.5
20260506170058 66 167 0.0 2.6 0.00 0.00 0.00 79 1006.4
20260506164608 67 82 0.0 0.0 0.00 0.00 0.00 79 1006.4
20260506163050 67 82 0.0 0.0 0.00 0.00 0.00 77 1006.4
20260506161546 67 179 0.0 2.6 0.00 0.00 0.00 77 1006.6
20260506160049 66 73 0.0 0.9 0.00 0.00 0.00 77 1006.9
20260506154549 65 167 0.0 0.9 0.00 0.00 0.00 78 1007.2
20260506153038 65 203 0.0 1.7 0.00 0.00 0.00 78 1007.4
20260506151536 65 200 0.0 2.6 0.00 0.00 0.00 78 1007.7
20260506150036 65 205 0.0 2.6 0.00 0.00 0.00 79 1007.8
20260506144533 64 211 0.0 0.9 0.00 0.00 0.00 79 1007.8
20260506143036 64 92 0.0 2.6 0.00 0.00 0.00 79 1007.9
20260506141537 64 160 0.0 1.7 0.00 0.00 0.00 79 1007.7
20260506140031 64 210 0.0 1.7 0.00 0.00 0.00 79 1008.0
20260506134529 64 146 0.0 0.9 0.00 0.00 0.00 80 1007.5
20260506133027 63 44 0.0 0.9 0.00 0.00 0.00 81 1007.7
20260506131532 63 119 0.0 0.9 0.00 0.00 0.00 82 1007.7
20260506130023 62 155 0.0 1.7 0.00 0.00 0.00 82 1008.0
20260506124526 61 176 0.0 1.7 0.00 0.00 0.00 83 1008.1
20260506123024 61 169 0.0 0.9 0.00 0.00 0.00 83 1008.2
20260506121521 60 134 0.0 0.9 0.00 0.00 0.00 84 1008.4
20260506120034 60 152 0.0 0.9 0.00 0.00 0.00 84 1008.4
20260506114524 60 165 0.0 0.9 0.00 0.00 0.00 85 1008.3
20260506113019 59 83 0.0 0.0 0.00 0.00 0.00 85 1008.4
20260506111518 59 87 0.0 0.9 0.00 0.00 0.00 86 1008.1
20260506110019 58 135 0.0 0.9 0.00 0.00 0.00 87 1008.5
20260506104516 58 107 0.0 0.0 0.00 0.00 0.00 87 1008.6
20260506103025 58 103 0.0 1.7 0.00 0.00 0.00 87 1008.5
20260506101515 58 94 0.0 0.0 0.00 0.00 0.00 87 1008.0
20260506100013 58 160 0.0 0.9 0.00 0.00 0.00 87 1008.2
20260506094526 58 146 0.0 0.9 0.00 0.00 0.00 86 1007.9
20260506093016 58 205 0.0 0.9 0.00 0.00 0.00 85 1008.2
20260506091510 58 188 0.0 0.9 0.00 0.00 0.00 85 1008.0
20260506090009 58 208 0.0 1.7 0.00 0.00 0.00 84 1008.1
20260506084509 59 131 0.0 0.9 0.00 0.00 0.00 84 1008.1
20260506083009 59 169 0.0 0.9 0.00 0.00 0.00 84 1008.3
20260506081508 59 186 0.0 0.9 0.00 0.00 0.00 84 1008.1
20260506073006 57 73 0.0 0.0 0.00 0.00 0.00 84 1008.1
20260506071506 58 74 0.0 0.0 0.00 0.00 0.00 83 1008.1
20260506061556 60 73 0.0 0.0 0.00 0.00 0.00 78 1007.9
20260506044553 62 73 0.0 0.0 0.00 0.00 0.00 74 1008.3
20260506043039 62 74 0.0 0.0 0.00 0.00 0.00 73 1008.3
20260506041548 62 84 0.0 0.9 0.00 0.00 0.00 72 1008.2
20260506040041 63 172 0.0 0.9 0.00 0.00 0.00 71 1008.3
20260506034535 63 116 0.0 0.0 0.00 0.00 0.00 71 1008.3
20260506033034 63 119 0.0 0.9 0.00 0.00 0.00 70 1008.3
20260506031546 63 169 0.0 1.7 0.00 0.00 0.00 68 1008.2
20260506030038 64 201 0.0 0.9 0.00 0.00 0.00 68 1008.2
20260506024536 64 186 0.0 1.7 0.00 0.00 0.00 67 1008.2
20260506023036 65 65 0.0 1.7 0.00 0.00 0.00 66 1008.2
20260506021532 65 86 0.0 0.9 0.00 0.00 0.00 66 1008.1
20260506020030 66 78 0.0 1.7 0.00 0.00 0.00 66 1008.0
20260506014530 66 195 0.0 0.9 0.00 0.00 0.00 65 1008.0
20260506013028 67 130 0.0 0.9 0.00 0.00 0.00 64 1007.8
20260506011528 68 158 0.0 2.6 0.00 0.00 0.00 62 1007.7
20260506010026 68 120 0.0 1.7 0.00 0.00 0.00 61 1007.5
20260506004529 69 139 0.0 0.9 0.00 0.00 0.00 60 1007.5
20260506003024 70 164 0.0 0.9 0.00 0.00 0.00 60 1007.0
20260506001524 70 145 0.0 0.9 0.00 0.00 0.00 59 1006.8
20260506000022 71 8 0.0 2.6 0.00 0.00 0.00 58 1006.6
20260505234546 71 105 0.0 5.2 0.00 0.00 0.00 56 1006.1
20260505233022 72 222 0.0 1.7 0.00 0.00 0.00 55 1005.8
20260505231521 73 86 0.9 5.2 0.00 0.00 0.00 54 1005.5
20260505230019 74 65 0.0 3.5 0.00 0.00 0.00 52 1005.2
20260505224527 75 195 0.0 4.3 0.00 0.00 0.00 50 1005.2
20260505223018 76 167 0.0 5.2 0.00 0.00 0.00 49 1005.0
20260505221517 77 205 0.9 4.3 0.00 0.00 0.00 47 1004.8
20260505220015 78 82 0.9 4.3 0.00 0.00 0.00 46 1004.6
20260505214519 79 195 1.7 7.8 0.00 0.00 0.00 45 1004.5
20260505213014 79 149 0.9 6.1 0.00 0.00 0.00 46 1004.1
20260505211513 79 203 0.0 5.2 0.00 0.00 0.00 46 1004.1
20260505210014 79 119 0.0 5.2 0.00 0.00 0.00 46 1004.2
20260505204522 80 99 0.9 6.1 0.00 0.00 0.00 45 1004.0
20260505203011 80 169 0.9 5.2 0.00 0.00 0.00 43 1003.9
20260505201510 81 88 0.0 6.1 0.00 0.00 0.00 43 1004.0
20260505200020 80 184 0.9 6.1 0.00 0.00 0.00 44 1004.1